Naples, Italy

4:41 PM CEST on August 27, 2016 (GMT +0200)
Capodichino Mil

Weather History for LIRN - July, 2013

Change the Weather History Date:

Friday, July 19, 2013

  Actual Average Record
Temperature  
Mean Temperature 78 °F -  
Max Temperature 84 °F 85 °F 96 °F (2015)
Min Temperature 71 °F 64 °F 64 °F (2001)
Cooling Degree Days 12    
Growing Degree Days 28 (Base 50)    
Moisture  
Dew Point 64 °F    
Average Humidity 61    
Maximum Humidity 70    
Minimum Humidity 51    
Precipitation  
Precipitation 0.00 in 0.05 in - ()
Sea Level Pressure  
Sea Level Pressure 30.03 in    
Wind  
Wind Speed 4 mph ()    
Max Wind Speed 13 mph    
Max Gust Speed -    
Visibility 6.2 miles    
Events      
Averages and records for this station are not official NWS values.
T = Trace of Precipitation, MM = Missing Value Source: Averaged Metar Reports

Daily Weather History Graph

Daily Weather History Graph

Search for Another Location

Airport or City:

Trip Planner

Search our weather history database for the weather conditions in past years. The results will help you decide how hot, cold, wet, or windy it might be!

Date:

Astronomy

Jul. 19, 2013 Rise Set
Actual Time 5:47 AM CEST 8:30 PM CEST
Civil Twilight 5:15 AM CEST 9:02 PM CEST
Nautical Twilight 4:34 AM CEST 9:42 PM CEST
Astronomical Twilight 3:48 AM CEST 10:28 PM CEST
Moon 5:14 PM CEST (7/19) 2:13 AM CEST (7/19)
Length of Visible Light 15h 47m
Length of Day
14h 43m
Waxing Gibbous, 84% of the Moon is Illuminated
Jul 19
Waxing Gibbous
Jul 22
Full
Jul 29
Last Quarter
Aug 6
New
Aug 14
First Quarter

Hourly Weather History & Observations

Time (CEST) Temp. Heat Index Dew Point Humidity Pressure Visibility Wind Dir Wind Speed Gust Speed Precip Events Conditions
12:20 AM 77.0 °F - 60.8 °F 57% 30.06 in - Calm Calm - N/A   Clear
12:50 AM 75.2 °F - 60.8 °F 61% 30.06 in - Calm Calm - N/A   Clear
1:20 AM 77.0 °F - 60.8 °F 57% 30.06 in - NNE 1.2 mph - N/A   Clear
1:50 AM 75.2 °F - 60.8 °F 61% 30.06 in - Variable 1.2 mph - N/A   Clear
2:20 AM 75.2 °F - 60.8 °F 61% 30.06 in - ENE 2.3 mph - N/A   Clear
2:50 AM 75.2 °F - 60.8 °F 61% 30.06 in - NE 2.3 mph - N/A   Clear
3:20 AM 73.4 °F - 60.8 °F 65% 30.06 in - NNE 2.3 mph - N/A   Clear
3:50 AM 73.4 °F - 60.8 °F 65% 30.04 in - NNE 3.5 mph - N/A   Clear
4:20 AM 71.6 °F - 60.8 °F 69% 30.04 in - NE 3.5 mph - N/A   Clear
4:50 AM 71.6 °F - 60.8 °F 69% 30.04 in - Calm Calm - N/A   Clear
5:50 AM 71.6 °F - 60.8 °F 69% 30.04 in - NNE 2.3 mph - N/A   Clear
6:20 AM 71.6 °F - 60.8 °F 69% 30.04 in - NNE 2.3 mph - N/A   Clear
6:50 AM 71.6 °F - 60.8 °F 69% 30.04 in - Variable 2.3 mph - N/A   Clear
7:20 AM 73.4 °F - 60.8 °F 65% 30.04 in - Variable 2.3 mph - N/A   Clear
7:50 AM 75.2 °F - 62.6 °F 65% 30.06 in - NE 2.3 mph - N/A   Clear
8:20 AM 78.8 °F - 66.2 °F 65% 30.06 in - Variable 2.3 mph - N/A   Clear
8:50 AM 78.8 °F - 66.2 °F 65% 30.06 in - SSE 3.5 mph - N/A   Clear
9:20 AM 80.6 °F 82.3 °F 64.4 °F 58% 30.06 in - South 4.6 mph - N/A   Clear
9:50 AM 82.4 °F 83.9 °F 64.4 °F 54% 30.06 in - South 5.8 mph - N/A   Clear
10:20 AM 82.4 °F 83.9 °F 64.4 °F 54% 30.06 in - Variable 5.8 mph - N/A   Clear
10:50 AM 84.2 °F 85.6 °F 64.4 °F 51% 30.06 in - South 6.9 mph - N/A   Clear
11:20 AM 84.2 °F 86.6 °F 66.2 °F 55% 30.04 in 6.2 mi SSW 6.9 mph - N/A   Partly Cloudy
11:50 AM 84.2 °F 86.6 °F 66.2 °F 55% 30.04 in 6.2 mi South 8.1 mph - N/A   Partly Cloudy
12:20 PM 84.2 °F 85.6 °F 64.4 °F 51% 30.04 in 6.2 mi SSW 9.2 mph - N/A   Partly Cloudy
12:50 PM 82.4 °F 83.9 °F 64.4 °F 54% 30.04 in 6.2 mi South 8.1 mph - N/A   Scattered Clouds
1:20 PM 80.6 °F 82.7 °F 66.2 °F 61% 30.04 in 6.2 mi South 9.2 mph - N/A   Scattered Clouds
1:50 PM 84.2 °F 88.4 °F 69.8 °F 62% 30.04 in 6.2 mi South 10.4 mph - N/A   Scattered Clouds
2:20 PM 84.2 °F 87.3 °F 68.0 °F 58% 30.04 in 6.2 mi South 10.4 mph - N/A   Scattered Clouds
2:50 PM 82.4 °F 87.2 °F 71.6 °F 70% 30.01 in 6.2 mi SSW 11.5 mph - N/A   Partly Cloudy
3:20 PM 82.4 °F 87.2 °F 71.6 °F 70% 30.01 in 6.2 mi South 11.5 mph - N/A   Partly Cloudy
3:50 PM 84.2 °F 88.4 °F 69.8 °F 62% 30.01 in 6.2 mi South 10.4 mph - N/A   Partly Cloudy
4:50 PM 84.2 °F 85.6 °F 64.4 °F 51% 30.01 in 6.2 mi West 11.5 mph - N/A   Partly Cloudy
5:20 PM 84.2 °F 87.3 °F 68.0 °F 58% 30.01 in 6.2 mi West 11.5 mph - N/A   Partly Cloudy
5:50 PM 82.4 °F 84.6 °F 66.2 °F 58% 30.01 in 6.2 mi WNW 12.7 mph - N/A   Scattered Clouds
6:20 PM 82.4 °F 85.4 °F 68.0 °F 62% 30.01 in 6.2 mi NW 10.4 mph - N/A   Scattered Clouds
6:50 PM 80.6 °F 81.8 °F 62.6 °F 54% 30.01 in 6.2 mi North 10.4 mph - N/A   Scattered Clouds
7:20 PM 82.4 °F 83.4 °F 62.6 °F 51% 30.01 in 6.2 mi NNE 9.2 mph - N/A   Partly Cloudy
7:50 PM 78.8 °F - 62.6 °F 57% 30.01 in 6.2 mi ENE 5.8 mph - N/A   Partly Cloudy
8:20 PM 77.0 °F - 62.6 °F 61% 30.01 in 6.2 mi Variable 5.8 mph - N/A   Partly Cloudy
8:50 PM 75.2 °F - 62.6 °F 65% 30.01 in 6.2 mi NNE 4.6 mph - N/A   Partly Cloudy
9:20 PM 75.2 °F - 60.8 °F 61% 30.01 in 6.2 mi SE 3.5 mph - N/A   Partly Cloudy
9:50 PM 77.0 °F - 60.8 °F 57% 30.01 in - Variable 2.3 mph - N/A   Clear
10:20 PM 73.4 °F - 60.8 °F 65% 30.01 in - NNE 8.1 mph - N/A   Clear
10:50 PM 71.6 °F - 60.8 °F 69% 30.01 in - NNE 5.8 mph - N/A   Clear
11:20 PM 73.4 °F - 60.8 °F 65% 30.01 in - NNE 5.8 mph - N/A   Clear
11:50 PM 73.4 °F - 60.8 °F 65% 30.01 in - NNE 4.6 mph - N/A   Clear